Weather Roundup
Issued by NWS Springfield, MO

Home | Current Version | Previous Version | Text Only | Print | Product List | Glossary On
Versions: 1 2 3 4 5 6 7 8 9 10 11 12 13 14 15 16 17 18 19 20 21 22 23 24 25 26 27 28 29 30 31 32 33 34 35 36 37 38 39 40 41 42 43 44 45 46 47 48 49 50
000
NZUS99 KSGF 261057
HRRSGF

HOURLY WEATHER
NATIONAL WEATHER SERVICE SPRINGFIELD MO
600 AM CDT FRI MAY 26 2017

......SGF CWA......

CITY           SKY/WX    TMP DP  RH WIND       PRES   REMARKS
SPRINGFIELD    PTCLDY    67  59  75 SE14      29.72R
JOPLIN         PTCLDY    65  60  84 E9        29.65F
WEST PLAINS    CLOUDY    63  59  87 S6        29.79F
ROLLA          CLOUDY    63  58  83 S13       29.79R

......SURROUNDING SGF CWA......

CITY           SKY/WX    TMP DP  RH WIND       PRES   REMARKS
CHANUTE        PTCLDY    65  58  78 E8        29.64R
PARSONS        PTCLDY    65  60  84 VRB5      29.65R
COFFEYVILLE    PTCLDY    65  64  97 E8        29.60R
EMPORIA        CLEAR     61  59  93 N3        29.64R
HARRISON AR    CLOUDY    63  60  90 E8        29.73R

......KANSAS AND MISSOURI......

CITY           SKY/WX    TMP DP  RH WIND       PRES   REMARKS
KANSAS CTY INT PTCLDY    62  59  90 NW7       29.66R
SEDALIA        CLOUDY    63  61  93 S12       29.67F
ST JOSEPH      CLEAR     62  59  90 SW5       29.67R
ST LOUIS       MOCLDY    63  55  75 SE9       29.77S
WICHITA        PTCLDY    64  60  87 E3        29.62R
TOPEKA         CLEAR     62  61  96 NW7       29.65R
OLATHE         MOCLDY    62  61  96 S12       29.62R

......TENNESSEE......

CITY           SKY/WX    TMP DP  RH WIND       PRES   REMARKS
MEMPHIS        NOT AVBL
NASHVILLE      PTCLDY    54  52  93 S7        29.95R

......ARKANSAS.......

CITY           SKY/WX    TMP DP  RH WIND       PRES   REMARKS
FAYETTEVILLE   PTCLDY    70  62  76 SW13G20   29.69R
FT SMITH       PTCLDY    66  60  81 NE3       29.68R
LITTLE ROCK    MOCLDY    67  64  90 S15G22    29.80R

......OKLAHOMA.......

CITY           SKY/WX    TMP DP  RH WIND       PRES   REMARKS
TULSA          MOCLDY    70  62  76 N6        29.59R
PONCA CITY     PTCLDY    64  60  87 NE6       29.59R
MCALESTER      MOCLDY    72  62  71 S13G23    29.65R
OKLAHOMA CITY  PTCLDY    72  61  68 S13       29.58R

......IOWA............

CITY           SKY/WX    TMP DP  RH WIND       PRES   REMARKS
DES MOINES     NOT AVBL
QUAD CITIES    PTCLDY    56  53  90 E7        29.77S

......ILLINOIS........

CITY           SKY/WX    TMP DP  RH WIND       PRES   REMARKS
QUINCY         NOT AVBL
CHICAGO        MOCLDY    53  50  89 CALM      29.84R



USA.gov is the U.S. government's official web portal to all federal, state and local government web resources and services.